Location: Dittelbrunn
(50.0738°N, 10.2196°E)
Time: 23:11:07
(UTC+00:00)

Terra - Pass Details

Date: 18 September 2020
Orbit: 701 x 703 km, 98.2° (Epoch: 30 October)

Event Time Altitude Azimuth Distance (km) Brightness Sun altitude
Exits shadow 21:57:50 23° 314° (NW) 1,500 4.0 -36.1°
Drops below altitude 10° 21:59:52 10° 331° (NNW) 2,183 5.1 -36.2°
Sets 22:02:18 0° 340° (NNW) 3,107 6.1 -36.3°
